This is the latest recevied weather packets stored in our database for station/object SP1BMW-13. If no packets are shown the sender has not sent any weather packets the latest 10 day(s).
| Time | Temp. | Humidity | Pressure | Rain* | Wind** | Luminosity | Snow |
|---|---|---|---|---|---|---|---|
| 1777279791 | 14.44° C | 29% | 1022.9 hPa | 0 mm | 2.24 m/s, 318° | 532 W/m² | - |
| 1777279731 | 14.44° C | 29% | 1022.9 hPa | 0 mm | 1.34 m/s, 293° | 530 W/m² | - |
| 1777279671 | 13.89° C | 29% | 1022.8 hPa | 0 mm | 1.79 m/s, 321° | 527 W/m² | - |
| 1777279611 | 13.89° C | 30% | 1023 hPa | 0 mm | 1.34 m/s, 179° | 526 W/m² | - |
| 1777279552 | 13.89° C | 30% | 1023 hPa | 0 mm | 1.34 m/s, 180° | 523 W/m² | - |
| 1777279491 | 13.89° C | 31% | 1022.9 hPa | 0 mm | 0.89 m/s, 252° | 521 W/m² | - |
| 1777279431 | 13.89° C | 32% | 1023 hPa | 0 mm | 0 m/s | 522 W/m² | - |
| 1777279370 | 13.89° C | 30% | 1022.9 hPa | 0 mm | 1.34 m/s, 233° | 519 W/m² | - |
| 1777279310 | 13.89° C | 30% | 1022.8 hPa | 0 mm | 2.68 m/s, 233° | 518 W/m² | - |
| 1777279250 | 13.89° C | 31% | 1022.8 hPa | 0 mm | 1.34 m/s, 266° | 517 W/m² | - |
| 1777279190 | 13.89° C | 31% | 1022.8 hPa | 0 mm | 0.45 m/s, 304° | 515 W/m² | - |
| 1777279130 | 13.89° C | 32% | 1022.7 hPa | 0 mm | 1.34 m/s, 266° | 514 W/m² | - |
| 1777279071 | 13.89° C | 33% | 1022.9 hPa | 0 mm | 0 m/s | 516 W/m² | - |
| 1777279011 | 13.89° C | 31% | 1023 hPa | 0 mm | 1.34 m/s, 276° | 513 W/m² | - |
| 1777278950 | 13.89° C | 31% | 1023.1 hPa | 0 mm | 1.79 m/s, 313° | 511 W/m² | - |
| 1777278891 | 13.89° C | 31% | 1022.7 hPa | 0 mm | 2.24 m/s, 294° | 511 W/m² | - |
| 1777278831 | 14.44° C | 32% | 1022.9 hPa | 0 mm | 1.34 m/s, 310° | 510 W/m² | - |
| 1777278772 | 14.44° C | 32% | 1023.1 hPa | 0 mm | 1.79 m/s, 258° | 509 W/m² | - |
| 1777278712 | 14.44° C | 30% | 1022.9 hPa | 0 mm | 2.68 m/s, 303° | 507 W/m² | - |
| 1777278651 | 14.44° C | 30% | 1023.1 hPa | 0 mm | 0.89 m/s, 323° | 505 W/m² | - |
| 1777278592 | 14.44° C | 30% | 1023 hPa | 0 mm | 1.79 m/s, 329° | 504 W/m² | - |
| 1777278531 | 14.44° C | 30% | 1022.8 hPa | 0 mm | 0.45 m/s, 157° | 501 W/m² | - |
| 1777278471 | 13.89° C | 32% | 1023 hPa | 0 mm | 0 m/s | 500 W/m² | - |
| 1777278411 | 13.89° C | 31% | 1022.9 hPa | 0 mm | 0 m/s | 497 W/m² | - |
| 1777278351 | 13.33° C | 32% | 1022.9 hPa | 0 mm | 0 m/s | 494 W/m² | - |
* Rain latest hour (hover to see other rain measurements)
** Current wind speed in m/s (hover to see current wind gust speed)